Weather History for Imperial, CA

Change the Weather History Date:

Wednesday, July 25, 2012

  Actual Average Record
Temperature  
Mean Temperature 95 °F -  
Max Temperature 109 °F 107 °F 116 °F (2000)
Min Temperature 82 °F 78 °F 66 °F (2001)
Cooling Degree Days 30    
Growing Degree Days 45 (Base 50)    
Moisture  
Dew Point 38 °F    
Average Humidity 14    
Maximum Humidity 18    
Minimum Humidity 9    
Precipitation  
Precipitation 0.00 in - - ()
Sea Level Pressure  
Sea Level Pressure 29.77 in    
Wind  
Wind Speed 8 mph (SSW)    
Max Wind Speed 16 mph    
Max Gust Speed -    
Visibility 10 miles    
Events      
Averages and records for this station are not official NWS values.
T = Trace of Precipitation, MM = Missing Value Source: NWS Daily Summary

Daily Weather History Graph

Daily Weather History Graph

Search for Another Location

Airport:

Trip Planner

Search our weather history database for the weather conditions in past years. The results will help you decide how hot, cold, wet, or windy it might be!

Date:

Astronomy

Jul. 25, 2012 Rise Set
Actual Time 5:51 AM PDT 7:45 PM PDT
Civil Twilight 5:24 AM PDT 8:12 PM PDT
Nautical Twilight 4:51 AM PDT 8:45 PM PDT
Astronomical Twilight 4:15 AM PDT 9:21 PM PDT
Moon 12:33 PM PDT 11:43 PM PDT
Length of Visible Light 14h 48m
Length of Day
13h 53m
Waxing Crescent, 43% of the Moon is Illuminated
Jul 25
Waxing Crescent
Jul 26
First Quarter
Aug 1
Full
Aug 9
Last Quarter
Aug 17
New

Hourly Weather History & Observations

Time (PDT) Temp. Dew Point Humidity Pressure Visibility Wind Dir Wind Speed Gust Speed Precip Events Conditions
12:53 AM 86.0 °F 30.0 °F 13% 29.76 in 10.0 mi West 12.7 mph - N/A   Clear
1:53 AM 89.1 °F 26.1 °F 10% 29.75 in 10.0 mi West 13.8 mph - N/A   Clear
2:53 AM 84.0 °F 30.0 °F 14% 29.77 in 10.0 mi Calm Calm - N/A   Clear
3:53 AM 82.0 °F 34.0 °F 18% 29.76 in 10.0 mi WSW 8.1 mph - N/A   Clear
4:53 AM 84.0 °F 26.1 °F 12% 29.78 in 10.0 mi Calm Calm - N/A   Clear
5:53 AM 82.9 °F 26.1 °F 13% 29.79 in 10.0 mi West 4.6 mph - N/A   Clear
6:53 AM 84.0 °F 28.0 °F 13% 29.82 in 10.0 mi Calm Calm - N/A   Clear
7:53 AM 90.0 °F 27.0 °F 10% 29.84 in 10.0 mi WSW 4.6 mph - N/A   Clear
8:53 AM 95.0 °F 27.0 °F 9% 29.84 in 10.0 mi SSW 8.1 mph - N/A   Clear
9:53 AM 97.0 °F 39.9 °F 14% 29.84 in 10.0 mi ESE 8.1 mph - N/A   Clear
10:53 AM 100.0 °F 39.9 °F 13% 29.84 in 10.0 mi SSE 5.8 mph - N/A   Clear
11:53 AM 102.0 °F 41.0 °F 12% 29.83 in 10.0 mi Calm Calm - N/A   Partly Cloudy
12:53 PM 102.9 °F 46.9 °F 15% 29.81 in - ESE 4.6 mph - N/A   Clear
1:53 PM 106.0 °F 46.9 °F 14% 29.79 in 10.0 mi SE 8.1 mph - N/A   Clear
2:53 PM 107.1 °F 48.9 °F 14% 29.76 in 10.0 mi SSE 11.5 mph - N/A   Clear
3:53 PM 107.1 °F 48.0 °F 14% 29.73 in 10.0 mi ESE 8.1 mph - N/A   Clear
4:53 PM 107.1 °F 46.9 °F 13% 29.70 in 10.0 mi ESE 9.2 mph - N/A   Clear
5:53 PM 108.0 °F 45.0 °F 12% 29.69 in 10.0 mi East 8.1 mph - N/A   Clear
6:53 PM 100.9 °F 50.0 °F 18% 29.70 in 10.0 mi West 12.7 mph - N/A   Clear
7:53 PM 97.0 °F 43.0 °F 16% 29.71 in 10.0 mi West 16.1 mph - N/A   Clear
8:53 PM 93.9 °F 43.0 °F 17% 29.73 in 10.0 mi WSW 16.1 mph - N/A   Clear
9:53 PM 91.0 °F 42.1 °F 18% 29.74 in 10.0 mi WSW 15.0 mph - N/A   Clear
10:53 PM 89.1 °F 39.9 °F 18% 29.76 in 10.0 mi WSW 11.5 mph - N/A   Clear
11:53 PM 89.1 °F 37.9 °F 16% 29.76 in 10.0 mi WSW 13.8 mph - N/A   Clear